Погода в Благовещенке

Украина / Запорожская область     47°27′12″N   34°49′52″E
темп.,
°C
ветер,
м/с
пор.,
м/с
влажн.,
%
обл.,
%
осадки,
мм/ч
давл.,
гПа
погр.,
м
27 октября, ср
ср2700:00+3ююв46630 0.0 1031165
03:00+3юв34670 0.0 1030138
06:00+3юв34660 0.0 1029134
09:00+5юв34600 0.0 1029195
12:00+9юв23470 0.0 1028600
15:00+10с22450 0.0 1026629
18:00+8сз22560 0.0 102658
21:00+7зсз11550 0.0 102548
28 октября, чт
чт2800:00+7зсз11571 0.0 102546
03:00+6зюз22623 0.0 102549
06:00+6з22735 0.0 102569
09:00+8зсз337358 0.0 1026170
12:00+10з3362100 0.0 1025367
15:00+12з45555 0.0 1024356
18:00+11зюз335883 0.0 102323
21:00+10зюз3466100 0.0 102441
29 октября, пт
пт2900:00+11зсз3469100 0.0 102463
03:00+11ссз34736 0.0 102468
06:00+10с348399 0.0 1025107
09:00+10ссв46830 0.0 1026232
12:00+13св34690 0.0 1027443
15:00+14всв34560 0.0 1027713
18:00+12всв45632 0.0 102751
21:00+10вюв34700 0.0 102862
30 октября, сб
сб3000:00+9в45730 0.0 102980
03:00+9всв46775 0.0 1030105
06:00+8в46872 0.0 1030127
09:00+9в58791 0.0 1031285
12:00+12в57640 0.0 1031647
15:00+13в56574 0.0 1030858
18:00+11в46652 0.0 103056
21:00+10вюв45710 0.0 103074
31 октября, вс
вс3100:00+9в58790 0.0 1030164
03:00+8всв58750 0.0 1029174
05:00+8всв611780 0.0 1028266
08:00+8всв713780 0.0 1028402
11:00+11в710650 0.0 1027498
14:00+14в68530 0.0 1024689
17:00+12в58623 0.0 1024101
20:00+10всв5107156 0.0 1024159